Location: Ash Swamp
(41.5170°N, 74.6157°W)
Time: 01:04:57
(UTC+00:00)

Cosmos 2366 rocket - Pass Details

Date: 14 July 2020
Orbit: 954 x 998 km, 82.9° (Epoch: 14 August)

Event Time Altitude Azimuth Distance (km) Brightness Sun altitude
Exits shadow 04:03:44 44° 215° (SW) 1,345 4.4 -25.3°
Maximum altitude 04:05:43 67° 279° (W) 1,077 4.2 -25.4°
Drops below altitude 10° 04:12:02 10° 2° (N) 2,761 7.3 -25.7°
Sets 04:14:35 0° 5° (N) 3,708 8.2 -25.8°
